Regional Weather Roundup
Issued by NWS Wakefield, VA

Home | Current Version | Previous Version | Text Only | Print | Product List | Glossary Off
Versions: 1 2 3 4 5 6 7 8 9 10 11 12 13 14 15 16 17 18 19 20 21 22 23 24 25 26 27 28 29 30 31 32 33 34 35 36 37 38 39 40 41 42 43 44 45 46 47 48 49 50

000
ASUS41 KAKQ 041810
RWRAKQ

REGIONAL WEATHER ROUNDUP
NATIONAL WEATHER SERVICE WAKEFIELD VA
100 PM EST WED MAR 04 2015

Note: "fair" indicates few or no clouds below 12,000 feet with no
significant weather and/or obstructions to visibility. * = Denotes
station may not report precipitation (e.g., rain,snow,etc.),
thunder or fog.

VAZ042-051-052>054-056-041900-
NORTHERN VIRGINIA

CITY           SKY/WX    TMP DP  RH WIND       PRES   REMARKS
WASH NATIONAL  CLOUDY    46  41  82 S7        29.90F HAZE
DULLES         CLOUDY    44  40  85 S8        29.86F
FORT BELVOIR   CLOUDY    46  43  91 VRB2      29.89F
QUANTICO       FOG       42  41  96 S7        29.89F VSB 1/4
FREDERICKSBRG* CLOUDY    54  53  96 CALM      29.88F
STAFFORD*      CLOUDY    51  32  48 SW3       29.93F HAZE
WARRENTON      CLOUDY    47  47 100 SW7       29.87F
CULPEPER*      CLOUDY    46  45  93 SW5       29.88F FOG
MANASSAS*      CLOUDY    45  45 100 S6        29.87F
LEESBURG*      CLOUDY    43  41  93 S3        29.87F
WINCHESTER     CLOUDY    52  41  66 SW6       29.83F
FRONT ROYAL*   CLOUDY    52  46  82 S6        29.83F
LURAY*         CLOUDY    52  52 100 SW8       29.86F
$$

VAZ048-049-060>072-079>083-041900-
CENTRAL AND SOUTH CENTRAL VIRGINIA

CITY           SKY/WX    TMP DP  RH WIND       PRES   REMARKS
RICHMOND       CLOUDY    58  52  80 W6        29.92F
CHESTERFIELD*  CLOUDY    57  46  67 S9        29.94F
PETERSBURG*    CLOUDY    57  54  89 SW7       29.94F
HANOVER        CLOUDY    54  51  90 VRB3      29.93F
TAPPAHANNOCK*  CLOUDY    54  52  94 SW3       29.93F
QUINTON*       CLOUDY    55  53  91 W6        29.93F
CHARLOTTSVILLE CLOUDY    50  43  77 S8        29.89F
GORDONSVILLE*  CLOUDY    49  44  83 SW7       29.90F
ORANGE*        CLOUDY    52  46  82 S6        29.91F
LOUISA*        CLOUDY    54  50  87 SW3       29.88F
BUMPASS*       CLOUDY    51  49  93 S5        29.88F
FARMVILLE*     CLOUDY    63  56  76 CALM      29.91F
CREWE*         CLOUDY    58  53  82 S6        29.92F
FORT PICKETT*  CLOUDY    52  51  97 S6        29.93F
CHASE CITY*    CLOUDY    61  59  92 NW7       29.92F
CLARKSVILLE*   CLOUDY    61  54  77 NW6       29.91F
SOUTH HILL*    CLOUDY    65  57  75 SW9       29.98F
LAWRENCEVILLE* MOCLDY    66  58  75 SW9       29.92F
EMPORIA*       PTSUNNY   64  55  72 S7        29.94F
$$

VAZ088>098-041900-
SOUTHEAST VIRGINIA

CITY           SKY/WX    TMP DP  RH WIND       PRES   REMARKS
NORFOLK        CLOUDY    61  55  81 SW10      29.94F
VIRGINIA BEACH CLOUDY    63  57  81 SW15      29.94F
NORFOLK NAVAL  CLOUDY    61  54  77 SW7       29.95F FOG
WEST POINT*    CLOUDY    57  53  86 SW3       29.94F
SALUDA*        CLOUDY    55  51  87 SW3       29.93S
NEWPORT NEWS   CLOUDY    60  54  80 SW15      29.94F
LANGLEY AFB    CLOUDY    57  54  88 SW14      29.93F
FORT EUSTIS    PTSUNNY   55 N/A N/A SW7       29.91F FOG
WILLIAMSBURG*  MOSUNNY   57  57 100 W6        29.94F
HR EXEC AP*    CLOUDY    59  55  88 SW9       29.97F
FRANKLIN*      CLOUDY    60  56  85 SW9G17    29.95F
WAKEFIELD      CLOUDY    60  54  80 W6        29.94F
$$

VAZ020-022-025-037-045-041900-
WEST CENTRAL AND SOUTHWEST VIRGINIA

CITY           SKY/WX    TMP DP  RH WIND       PRES   REMARKS
STAUNTON*      DRIZZLE   49  47  96 S6        29.91F
WAYNESBORO*    CLOUDY    52  47  81 SW5       29.91R
HOT SPRINGS VA LGT RAIN  43  43 100 W10       29.88F VSB<1/4
LYNCHBURG      CLOUDY    56  50  80 S3        29.91F
DANVILLE       MOSUNNY   64  55  72 N8        29.90F
SOUTH BOSTON*  CLOUDY    59  54  84 N8        29.91F
MARTINSVILLE   CLOUDY    63  55  77 W5        29.91F
ROANOKE        CLOUDY    54  50  86 CALM      29.93F
BLACKSBURG     DRIZZLE   49  46  88 NE3       29.94F
DUBLIN*        CLOUDY    51  51 100 N3        29.93S
MARION*        CLOUDY    52  51  95 CALM      29.92F
HILLSVILLE*    CLOUDY    58  54  86 N8        29.90F
RICHLANDS*     LGT RAIN  47  45  95 N3        29.91F VSB 1/4
WISE*          DRIZZLE   46  46 100 CALM      29.92S
ABINGDON*      CLOUDY    55  55 100 N3        29.89F
$$

MDZ021>025-VAZ099-100-041900-
SOUTHERN MARYLAND AND THE DELMARVA PENINSULA

CITY           SKY/WX    TMP DP  RH WIND       PRES   REMARKS
PATUXENT RIVER DRIZZLE   44  42  93 SE5       29.90F FOG
BAY BRIDGE APT   N/A     45  45 100 CALM      29.89F FOG
LEONARDTOWN    CLOUDY    48  46  93 SW6       29.91F
DOVER          CLOUDY    47  47 100 S8        29.89F
GEORGETOWN     LGT RAIN  48  47  96 SW7       29.91F FOG
EASTON         CLOUDY    48  48 100 S9        29.93F FOG
CAMBRIDGE      CLOUDY    46  45  93 SE6       29.89F
SALISBURY      LGT RAIN  51  48  89 S8        29.91F FOG
OCEAN CITY     CLOUDY    47  46  97 SW5       29.92F FOG
WALLOPS ISLAND CLOUDY    50  50 100 VRB3      29.92F FOG
ACCOMACK*      CLOUDY    52  50  93 SW9       29.94F
$$

NCZ012>017-030>032-041900-
NORTH CENTRAL AND EASTERN NORTH CAROLINA

CITY           SKY/WX    TMP DP  RH WIND       PRES   REMARKS
ROANOKE RAPIDS CLOUDY    63  57  82 SW18      29.95F
RALEIGH        PTSUNNY   63  57  81 SW18G25   29.96F
ELIZABETH CITY PTSUNNY   67  61  81 SW18G24   29.95F
AHOSKIE*       CLOUDY    61  57  86 SW6       29.96F
EDENTON*       MOSUNNY   65  60  86 SW10G16   29.97F
CURRITUCK*     CLOUDY    64  59  85 SW15G21   29.96F
KILL DEVIL HLS CLOUDY    73  62  69 W6        29.95F
MANTEO         CLOUDY    66  57  72 S10       29.97F
CAPE HATTERAS  FOG       56  56 100 W13G21    30.03F VSB 1/4
TARBORO*       CLOUDY    63  58  82 SW10      29.98F
GOLDSBORO      NOT AVBL
WASHINGTON     MOSUNNY   76  62  62 SW22G30   29.96F
GREENVILLE     SUNNY     70  63  78 SW12G18   29.98F
NEW BERN       CLOUDY    81  63  54 SW18G24   29.98F
WILMINGTON     SUNNY     74  65  73 S15G30    30.02F
$$

VAZ048-041900-
ELSEWHERE

CITY           SKY/WX    TMP DP  RH WIND       PRES   REMARKS
HARRISBURG PA  LGT RAIN  41  37  86 CALM      29.87R FOG
BALTIMORE      LGT RAIN  43  40  89 SW3       29.86F FOG
ANNAPOLIS      FOG       38  36  92 SE6       29.88F VSB 3/4
ANDREWS AFB    CLOUDY    47  46  95 S7        29.87F
PHILADELPHIA   CLOUDY    42  39  89 CALM      29.89F FOG
HENDERSON NC   SUNNY     67  55  66 SW10      29.93F
GREENSBORO     MOSUNNY   70  57  63 SW20G38   29.88F
ROCKY MOUNT    CLOUDY    60  57  89 SW13      29.97F
$$

VAZ100-041900-
MARINE

STATION/POSITION TIME  TEMP    WIND        PRES    WAVE   SWELL
                       AIR SEA DIR/SP/G            HT/PER HT/PER
                 (UTC) (F)     (DEG/KT/KT) (MB)    (FT/S) (FT/S)
BRANDYWINE LGT   1800   43 31  230/ 10/ 13 1012.8F
CAPE MAY NJ      1800   43 34  220/  7/ 10 1012.2F
LEWES DE         1800   49 31  250/  7/ 11 1012.7F
15NM E FENWICK I 1800   38 35              1013.1F   6/ 8
OCEAN-CITY-INLET 1800   40 33  210/  6/  7 1013.1F
WACHAPREAGUE VA  1800   53 38  240/  6/  9 1013.6F
THOMAS POINT MD  1800   36 32  170/  8/  9 1013.1F
COVE POINT MD    1800   35     190/ 10/ 12 1012.4F
SOLOMONS ISLAND  1800      34                N/A
BISHOPS HEAD MD  1800   37 33  170/  8/  9 1012.6F
CAMBRIDGE MD     1800   46 32  210/  3/  5 1012.5F
LEWISETTA VA     1800   39 34     CALM     1012.9F
RAPPAHANNOCK LGT 1800          190/ 15/ 16 1014.1F
STINGRAY PT      1800   37 34  170/  6/  6   N/A     0
YORK RVR RNG VA  1800   52     230/  7/  8 1013.0F
YORKTOWN VA      1800   55 34  220/  6/  7 1013.3F
DOMINION TERM VA 1800   51     230/  5/  5 1013.9F
KIPTOPEKE VA     1800      38  280/  4/  9   N/A
CHES BAY BRIDGE  1800   52 35  290/  5/  5 1013.8F
CAPE HENRY VA    1800   47      90/  5/  6 1012.9F
CHESAPEAKE LGHT  1700   47      CALM  / 11 1016.1S
WILLOUBY STN VA  1800   52     250/  5/  6 1014.4F
S CRANEY ISL VA  1800          220/  5/  7 1013.7F
CAPE HENRY BUOY  1800      37                N/A     4/ 8
1ST LANDING BUOY 1800   41 36  120/  4/  4 1013.7F   1/ 4
OFFSHORE WE BUOY 1800      37                N/A     5/ 8   2/11
64NM E OF VA BCH 1800   54 54  240/ 10/ 12 1014.9F   6/ 6   5/ 6
DUCK PIER NC     1800   58 35  230/  8/ 11 1013.9F
44100 DUCK FRF   1800      38                N/A     4/ 7   2/11
44056 DUCK FRF   1800      37                N/A     3/ 8
OREGON INLET NC  1800   52 45  200/ 19/ 23 1015.4F
HATTERAS NC      1800   56 45  230/ 12/ 18 1017.1F
CAPE LOOKOUT NC  1700   60     230/ 10/ 13 1017.9F
$$



USA.gov is the U.S. government's official web portal to all federal, state and local government web resources and services.